カタログに戻る

STARLINK-5035

運用中通信VLEO
NORAD 53897·PAYLOAD·🇺🇸 United States

打ち上げ Sep 24, 2022 から Cape Canaveral Space Force Station

Loading…

次のパス (今後24時間)

TLE

最新Source: CelesTrak SupGP

元期: Sep 15, 2026, 02:16 UTC

1 53897C 22119M   26258.09493056  .00247290  00000+0  56098-2 0  2587
2 53897  53.2150 139.6403 0001240  81.7706 188.4847 15.42362242    14

AllMySatでSTARLINK-5035をリアルタイム追跡

Download on the App Store